This demonstration page uses our WeatherBlox Daily Observations layout. Learn more.

Left ArrowRight Arrow

44.89941, -97.11507

Hourly Observations for November 26, 2020

Temp ( °F °C ) Dew Point ( °F °C ) Humidity (%) Winds ( mph kmh ) Pressure ( in mb ) Visibility ( mi km ) Precip ( " mm )
12:13 am 00:13 Cloudy with Mist and Fog 24 -4.4 24 -4.4 100 100 SSE 13 20 29.85 1011 2 3 0.00 0.00
12:25 am 00:25 Cloudy with Mist and Fog 24 -4.4 24 -4.4 100 100 SSE 9 15 29.85 1011 3 5 0.00 0.00
12:53 am 00:53 Cloudy with Mist and Fog 24 -4.4 24 -4.4 100 100 S 13 20 29.80 1009 3 5 0.00 0.00
1:05 am 01:05 Cloudy with Mist and Fog 25 -3.9 24 -4.4 96 96 S 10 17 29.85 1011 3 4 0.00 0.00
1:25 am 01:25 Cloudy with Mist and Fog 25 -3.9 25 -3.9 100 100 S 12 19 29.85 1011 2 2 0.00 0.00
1:41 am 01:41 Cloudy with Mist and Fog 25 -3.9 25 -3.9 100 100 S 8 13 29.85 1011 3 4 0.00 0.00
1:48 am 01:48 Cloudy with Mist and Fog 25 -4 25 -4 100 100 S 6 9 29.86 1011 3 5 0.00 0.00
1:53 am 01:53 Cloudy with Mist and Fog 25 -3.9 25 -3.9 100 100 S 8 13 29.81 1009 3 5 0.00 0.00
2:53 am 02:53 Cloudy with Mist and Fog 26 -3.3 26 -3.3 100 100 SSW 9 15 29.83 1010 5 8 0.00 0.00
3:48 am 03:48 Cloudy with Mist and Fog 25 -4 25 -4 100 100 SSW 6 9 29.88 1012 2 3 0.00 0.00
3:53 am 03:53 Cloudy with Mist and Fog 25 -3.9 24 -4.4 96 96 SW 6 9 29.85 1011 1 2 0.00 0.00
4:00 am 04:00 Mostly Cloudy with Freezing Fog 24 -4.4 24 -4.4 100 100 SW 5 7 29.89 1012 1 1 0.00 0.00
4:17 am 04:17 Cloudy with Mist and Fog 21 -6.1 21 -6.1 100 100 W 6 9 29.92 1013 2 2 0.00 0.00
4:21 am 04:21 Mostly Cloudy with Mist and Fog 21 -6.1 20 -6.7 96 96 W 5 7 29.92 1013 3 5 0.00 0.00
4:33 am 04:33 Partly Cloudy with Mist and Fog 21 -6.1 21 -6.1 100 100 Calm 29.91 1013 5 8 0.00 0.00
4:53 am 04:53 Clear with Mist and Fog 20 -6.7 20 -6.7 100 100 SW 3 6 29.87 1012 5 8 0.00 0.00
5:53 am 05:53 Clear 24 -4.4 23 -5 96 96 NW 5 7 29.89 1012 8 13 0.00 0.00
6:48 am 06:48 Mostly Cloudy 25 -4 25 -4 100 100 NW 10 17 29.97 1015 8 13 0.00 0.00
6:53 am 06:53 Mostly Cloudy 26 -3.3 25 -3.9 96 96 NW 12 19 29.93 1014 8 13 0.00 0.00
7:17 am 07:17 Mostly Cloudy 26 -3.3 25 -3.9 96 96 NNW 7 11 29.97 1015 8 13 0.00 0.00
7:30 am 07:30 Partly Cloudy 25 -3.9 24 -4.4 96 96 NNW 7 11 29.99 1015 7 11 0.00 0.00
7:53 am 07:53 Partly Cloudy with Mist and Fog 27 -2.8 26 -3.3 96 96 NNW 7 11 29.96 1015 6 10 0.00 0.00
8:53 am 08:53 Sunny 29 -1.7 28 -2.2 96 96 NW 10 17 29.98 1015 7 11 0.00 0.00
9:28 am 09:28 Mostly Cloudy 30 -1.1 29 -1.7 96 96 NW 9 15 30.04 1017 7 11 0.00 0.00
9:53 am 09:53 Cloudy 31 -0.6 29 -1.7 92 92 NW 10 17 30.01 1016 7 11 0.00 0.00
10:53 am 10:53 Cloudy 32 0 29 -1.7 88 88 WNW 8 13 30.04 1017 10 16 0.00 0.00
11:07 am 11:07 Cloudy 33 0.6 29 -1.7 85 85 NW 9 15 30.06 1018 10 16 0.00 0.00
11:20 am 11:20 Cloudy 33 0.6 29 -1.7 85 85 NW 10 17 30.04 1017 10 16 0.00 0.00
11:50 am 11:50 Cloudy 34 1 28 -2 81 81 WNW 12 19 30.04 1017 10 16 0.00 0.00
11:53 am 11:53 Cloudy 33 0.6 28 -2.2 82 82 WNW 13 20 30.03 1017 10 16 0.00 0.00
12:20 pm 12:20 Cloudy 34 1.1 29 -1.7 82 82 WNW 10 17 30.04 1017 10 16 0.00 0.00
12:30 pm 12:30 Cloudy 34 1.1 28 -2.2 79 79 WNW 10 17 30.04 1017 10 16 0.00 0.00
12:53 pm 12:53 Cloudy 34 1.1 28 -2.2 79 79 WNW 9 15 30.02 1017 10 16 0.00 0.00
1:53 pm 13:53 Cloudy 34 1.1 28 -2.2 79 79 W 12 19 30.01 1016 10 16 0.00 0.00
2:15 pm 14:15 Partly Cloudy 36 2.2 29 -1.7 76 76 WNW 10 17 30.01 1016 10 16 0.00 0.00
2:53 pm 14:53 Mostly Sunny 36 2.2 28 -2.2 73 73 W 12 19 30.01 1016 10 16 0.00 0.00
3:53 pm 15:53 Sunny 36 2.2 28 -2.2 73 73 WSW 10 17 30.01 1016 10 16 0.00 0.00
4:53 pm 16:53 Clear 30 -1.1 26 -3.3 85 85 SSW 8 13 30.04 1017 10 16 0.00 0.00
5:53 pm 17:53 Clear 30 -1.1 26 -3.3 85 85 SW 8 13 30.04 1017 10 16 0.00 0.00
6:53 pm 18:53 Clear 28 -2.2 25 -3.9 88 88 SW 10 17 30.04 1017 10 16 0.00 0.00
7:53 pm 19:53 Clear 30 -1.1 26 -3.3 85 85 SW 13 20 30.04 1017 10 16 0.00 0.00
8:53 pm 20:53 Mostly Cloudy 32 0 28 -2.2 85 85 SW 14 22 30.04 1017 10 16 0.00 0.00
9:53 pm 21:53 Clear 31 -0.6 27 -2.8 85 85 SW 13 20 30.05 1018 10 16 0.00 0.00
10:53 pm 22:53 Clear 31 -0.6 25 -3.9 79 79 W 13 20 30.07 1018 10 16 0.00 0.00
11:53 pm 23:53 Clear 30 -1.1 24 -4.4 79 79 WNW 12 19 30.10 1019 10 16 0.00 0.00

Powered by AerisWeather